This is the latest recevied weather packets stored in our database for station/object KY0TEQ-13. If no packets are shown the sender has not sent any weather packets the latest 10 day(s).
| Time | Temp. | Humidity | Pressure | Rain* | Wind** | Luminosity | Snow |
|---|---|---|---|---|---|---|---|
| 1788636547 | 26.11° C | 30% | 1309.5 hPa | 0 mm | - | 744 W/m² | - |
| 1788636242 | 25° C | 30% | 1309.4 hPa | 0 mm | - | 751 W/m² | - |
| 1788635937 | 26.11° C | 29% | 1309.1 hPa | 0 mm | - | 227 W/m² | - |
| 1788635636 | 25° C | 30% | 1309.4 hPa | 0 mm | - | 187 W/m² | - |
| 1788635336 | 26.11° C | 30% | 1309.5 hPa | 0 mm | - | 144 W/m² | - |
| 1788635034 | 25.56° C | 29% | 1309.7 hPa | 0 mm | - | 739 W/m² | - |
| 1788634733 | 26.67° C | 28% | 1309.7 hPa | 0 mm | - | 597 W/m² | - |
| 1788634428 | 26.11° C | 29% | 1309.7 hPa | 0 mm | - | 713 W/m² | - |
| 1788634122 | 26.11° C | 28% | 1309.7 hPa | 0 mm | - | 699 W/m² | - |
| 1788633821 | 25.56° C | 30% | 1309.7 hPa | 0 mm | - | 704 W/m² | - |
| 1788633519 | 25.56° C | 29% | 1309.7 hPa | 0 mm | - | 715 W/m² | - |
| 1788633249 | 25.56° C | 29% | 1309.9 hPa | 0 mm | - | 713 W/m² | - |
| 1788632910 | 24.44° C | 31% | 1310 hPa | 0 mm | - | 698 W/m² | - |
| 1788632609 | 25.56° C | 29% | 1310.1 hPa | 0 mm | - | 717 W/m² | - |
| 1788632305 | 25° C | 30% | 1310.2 hPa | 0 mm | - | 695 W/m² | - |
| 1788632004 | 25.56° C | 29% | 1310.2 hPa | 0 mm | - | 679 W/m² | - |
| 1788631703 | 25.56° C | 29% | 1310.6 hPa | 0 mm | - | 672 W/m² | - |
| 1788631399 | 25° C | 29% | 1310.5 hPa | 0 mm | - | 662 W/m² | - |
| 1788631094 | 25° C | 31% | 1310.7 hPa | 0 mm | - | 656 W/m² | - |
| 1788630788 | 25° C | 31% | 1310.5 hPa | 0 mm | - | 649 W/m² | - |
| 1788630484 | 25° C | 31% | 1310.6 hPa | 0 mm | - | 646 W/m² | - |
| 1788630179 | 25° C | 31% | 1310.5 hPa | 0 mm | - | 640 W/m² | - |
| 1788629875 | 24.44° C | 32% | 1310.8 hPa | 0 mm | - | 637 W/m² | - |
| 1788629571 | 23.89° C | 33% | 1311 hPa | 0 mm | - | 632 W/m² | - |
| 1788629270 | 23.89° C | 33% | 1310.8 hPa | 0 mm | - | 637 W/m² | - |
* Rain latest hour (hover to see other rain measurements)
** Current wind speed in m/s (hover to see current wind gust speed)